Other Public Products
Issued by NWS Grand Forks, ND

Home | Current Version | Previous Version | Text Only | Print | Product List | Glossary Off
Versions: 1 2 3 4 5 6 7 8 9 10 11 12 13 14 15 16 17 18 19 20 21 22 23 24 25 26 27 28 29 30 31 32 33 34 35 36 37 38 39 40 41 42 43 44 45 46 47 48 49 50

000
FPUS83 KFGF 010710
OPUFGF
PRAIRIE TO PINES WEATHER ROUNDUP
NATIONAL WEATHER SERVICE EASTERN NORTH DAKOTA/GRAND FORKS ND
200 AM CDT SUN MAY 01 2016

 **SATELLITE DATA USED TO AUGMENT SKY COVER AT AUTOMATED STATIONS**
 *****  WEATHER ACROSS EASTERN NORTH DAKOTA  *****

CITY           SKY/WX    TMP DP  RH WIND       PRES   REMARKS
GRAND FORKS    CLEAR     41  27  57 E7        30.26S
GRAND FORKS AF CLEAR     34  25  69 N6        30.26S
GRAND CITY NWS NOT AVBL
BUXTON         NOT AVBL
DEVILS LAKE    CLEAR     36  30  79 N9        30.30R
FARGO          CLEAR     41  27  57 NE6       30.23R
WAHPETON ARPT  SUNNY     41  30  65 E6        30.22S
$$

 *****  WEATHER ACROSS CENTRAL AND WESTERN NORTH DAKOTA  *****

CITY           SKY/WX    TMP DP  RH WIND       PRES   REMARKS
JAMESTOWN      CLEAR     37  27  67 N9        30.24S
BISMARCK       CLEAR     37  31  78 NE3       30.29R
MINOT          CLOUDY    40  27  59 N8        30.31S
MINOT AFB      CLOUDY    35  28  75 N7        30.31R
GARRISON         N/A     41  30  65 NE7       30.30R
WILLISTON      CLEAR     40  29  64 N3        30.33R
DICKINSON      CLEAR     36  26  67 NW7       30.28R
HETTINGER      CLEAR     28  24  85 W6        30.30R WCI  22
$$

 *****  OTHER OBSERVATIONS NORTHEAST NORTH DAKOTA  *****

CITY           SKY/WX    TMP DP  RH WIND       PRES   REMARKS
WALHALLA       FAIR      36  36 100 CALM      30.31S
LANGDON        FAIR      32  25  74 N3        30.31S
CAVALIER       FAIR      37  30  75 NW3       30.30S
GRAFTON        FAIR      39  28  65 N7        30.30S
CANDO          FAIR      34  27  75 N8        30.33S
FORT TOTTEN      N/A     40  30  66 N2        29.95S
ROLLA          FAIR      36  25  64 NW9       30.33S
RUGBY          FAIR      37  28  70 E8        30.31R
 ***** THE ABOVE OBSERVATIONS ARE NON NWS ARE NOT QUALITY
        CONTROLLED AND MAY MIS-REPORT RAIN FOR SNOW...
$$

 *****  OTHER OBSERVATIONS SOUTHEAST NORTH DAKOTA *****

CITY           SKY/WX    TMP DP  RH WIND       PRES   REMARKS
COOPERSTOWN    NOT AVBL
VALLEY CITY    FAIR      43  28  56 NE12      30.26S
OAKES            N/A    N/A N/A N/A MISG        N/A
GWINNER        FAIR      39  32  75 N6        30.23R
SHEYENNE NWR     N/A     42  28  58 NE5       29.95
BUFFALO        NOT AVBL
WYNDMERE         N/A     39  30  70 N2          N/A
 ***** THE ABOVE OBSERVATIONS ARE NON NWS ARE NOT QUALITY
       CONTROLLED AND MAY MIS-REPORT RAIN FOR SNOW...
$$

  *****  WEATHER ACROSS NORTHERN MINNESOTA  *****

CITY           SKY/WX    TMP DP  RH WIND       PRES   REMARKS
FLAG ISLAND    CLEAR     43  36  75 N5        30.28S
WARROAD        CLEAR     41  34  75 N6        30.28F
ROSEAU         CLEAR     37  30  75 N3        30.28S
HALLOCK        CLEAR     39  28  65 NE5       30.29S
THF RVR FALLS  CLEAR     43  27  52 NE7       30.27S
HALSTAD        NOT AVBL
FOSSTON        CLEAR     37  27  65 NE5       30.25S
BAUDETTE       CLEAR     40  26  57 NE6       30.26S
WASKISH        CLEAR     37  30  75 CALM      30.26S
CROOKSTON      CLEAR     43  28  56 E6        30.27S
$$
  *****  WEATHER ACROSS CENTRAL AND WEST MINNESOTA  *****

CITY           SKY/WX    TMP DP  RH WIND       PRES   REMARKS
BEMIDJI        CLEAR     35  30  83 E5        30.25R
PARK RAPIDS    CLEAR     41  28  60 NE5       30.23R
WADENA         CLEAR     37  27  65 NE3       30.22R
DETROIT LAKES  CLEAR     43  32  65 E5        30.24S
MOORHEAD       CLEAR     39  28  65 E5        30.24R
FERGUS FALLS   CLEAR     43  28  56 E9        30.21R
ELBOW LAKE     FAIR      41  32  69 E6        30.21R
MORRIS MN      CLOUDY    43  28  56 NE14      30.17S
STAPLES        CLEAR     37  27  65 CALM      30.21S
WHEATON        CLEAR     43  32  65 N6        30.22S
$$
  *****  WEATHER ELSEWHERE ACROSS MINNESOTA  *****

CITY           SKY/WX    TMP DP  RH WIND       PRES   REMARKS
DULUTH         CLEAR     35  27  72 NE8       30.21S
INTRNTL FALLS  CLEAR     37  29  72 NE6       30.26S
ELY            CLEAR     27  27 100 CALM      30.25S
CLOQUET        CLEAR     36  27  69 N7        30.21S
BRAINERD       CLEAR     34  26  72 NE6       30.21S
HIBBING        CLEAR     26  25  96 N3        30.23S
ALEXANDRIA     CLEAR     39  27  62 NE9       30.20R
SAINT CLOUD    CLOUDY    40  29  64 NE6       30.16S
MINNEAPOLIS    CLOUDY    46  31  55 N7        30.12S
$$

  *****  WEATHER ACROSS SOUTH DAKOTA  *****

CITY           SKY/WX    TMP DP  RH WIND       PRES   REMARKS
SIOUX FALLS    LGT RAIN  44  40  85 NE12      30.09S
BROOKINGS      CLOUDY    42  32  67 NE9       30.11R
WATERTOWN      PTCLDY    41  29  62 NE13      30.14R
HURON          CLOUDY    42  34  73 NE9       30.15R
SISSETON         N/A     33  29  85 NW5       30.20R
ABERDEEN       CLEAR     39  31  72 NE6       30.20R
MITCHELL       CLOUDY    44  43  96 NW7       30.13R
PIERRE         CLOUDY    39  32  76 NE10      30.17R
MOBRIDGE       CLEAR     45  30  55 NE13      30.20S
RAPID CITY     CLOUDY    39  32  76 N9        30.24S
$$

  *****  SOME WEATHER IN NEARBY STATES *****

CITY           SKY/WX    TMP DP  RH WIND       PRES   REMARKS
GLASGOW MT     CLOUDY    41  29  62 E7        30.32S
GREAT FALLS MT CLEAR     40  33  76 SE8       30.33S
CHEYENNE WY    LGT SNOW  30  28  92 N17G26    30.21R FOG     WCI  18
SCOTTSBLUFF NE LGT RAIN  37  35  92 NW7       30.22R
OMAHA NE       DRIZZLE   47  45  93 NE15      29.92R
DES MOINES IA  DRIZZLE   46  43  89 E10       29.94S FOG
DAVENPORT IA   CLOUDY    45  44  97 NE12      29.92F FOG
CHICAGO IL     DRIZZLE   45  45 100 NE10      29.91S FOG
EAU CLAIRE WI  CLOUDY    47  33  58 NE12      30.09S
LA CROSSE WI   CLOUDY    45  40  82 N7        30.05F
$$

  *****  SOME NATIONAL WEATHER *****

CITY           SKY/WX    TMP DP  RH WIND       PRES   REMARKS
LA GUARDIA NY  CLOUDY    51  34  52 S6        30.20F
RALEIGH NC     CLOUDY    60  56  86 SE6       30.13S
ATLANTA GA     CLOUDY    69  65  86 S5        29.98F
NEW ORLEANS LA PTCLDY    70  66  87 SE5       29.86F
OKLAHOMA CITY  CLEAR     54  44  69 N9        29.97R
ALBUQUERQUE NM LGT RAIN  44  35  70 E32G45    29.94R
SALT LAKE CITY CLOUDY    51  28  41 SE20      30.01S
LOS ANGELES CA PTCLDY    59  50  72 CALM      29.85S
BOISE ID       PTCLDY    47  36  65 SW3       30.09S
SEATTLE WA     CLEAR     57  40  52 NE14      30.29F
$$

*** WEATHER ACROSS MANITOBA...SASKATCHEWAN AND ONTARIO ***
                ***ONTARIO***

CITY           SKY/WX    TMP DP  RH WIND       PRES   REMARKS
GERALDTON      CLOUDY    37  32  81 NE7       30.31S
THUNDER BAY    CLEAR     34  27  75 VRB2      30.27S
SIOUX LOOKOUT  CLEAR     32  28  86 CALM      30.31S
TORONTO        LGT RAIN  50  36  57 E8        30.03F
BIG TROUT LK   CLEAR     30  27  86 E3        30.33F
PICKLE LAKE    NOT AVBL
DRYDEN         CLEAR     37  34  87 NE3       30.29S
KENORA         CLEAR     41  25  52 NE6       30.29S
$$
                *** MANITOBA***

CITY           SKY/WX    TMP DP  RH WIND       PRES   REMARKS
BRANDON        CLEAR     32  23  69 N5        30.34S
DAUPHIN        CLEAR     32  25  74 W9        30.35S WCI  24
ISLAND LAKE    PTCLDY    37  28  70 SE6       30.29F
PILOT MOUND      N/A     43  27  52 NE6         N/A
THE PAS        CLEAR     45  30  57 SE9       30.28F
THOMPSON       CLEAR     41  25  52 CALM      30.23S
WINNIPEG       NOT AVBL
LYNN LAKE      CLEAR     45  25  45 SW7       30.16F
CHURCHILL      CLOUDY    28  27  93 SE15      30.27F WCI  17
$$
                ***SASKATCHEWAN***

CITY           SKY/WX    TMP DP  RH WIND       PRES   REMARKS
ESTEVAN        NOT AVBL
KINDERSLEY     CLEAR     43  32  65 S5        30.30S
LLOYDMINSTER   CLEAR     45  34  65 SW10      30.24F
PRINCE ALBERT  PTCLDY    45  28  53 CALM      30.26S
REGINA         CLEAR     37  23  56 SE9       30.33S
YORKTON        CLEAR     37  30  75 VRB2      30.34F
N. BATTLEFORD  CLEAR     43  34  70 S3        30.29S   C1F1C2F2C3F3C4F4C5F5C6F6C7F7C8F8C9F9CaFaCbFbCcFcCdFdCe!



USA.gov is the U.S. government's official web portal to all federal, state and local government web resources and services.